Year,Month,Day,Hour,Minute,Value (Times are PST for temperature in C)
2011,07,05,00,00,13.10
2011,07,05,00,01,13.10
2011,07,05,00,02,13.10
2011,07,05,00,03,13.10
2011,07,05,00,04,13.10
2011,07,05,00,05,13.00
2011,07,05,00,06,13.00
2011,07,05,00,07,13.00
2011,07,05,00,08,12.90
2011,07,05,00,09,12.90
2011,07,05,00,10,12.90
2011,07,05,00,11,12.90
2011,07,05,00,12,12.80
2011,07,05,00,13,12.80
2011,07,05,00,14,12.80
2011,07,05,00,15,12.80
2011,07,05,00,16,12.80
2011,07,05,00,17,12.80
2011,07,05,00,18,12.80
2011,07,05,00,19,12.80
2011,07,05,00,20,12.80
2011,07,05,00,21,12.80
2011,07,05,00,22,12.80
2011,07,05,00,23,12.80
2011,07,05,00,24,12.80
2011,07,05,00,25,12.80
2011,07,05,00,26,12.80
2011,07,05,00,27,12.80
2011,07,05,00,28,12.80
2011,07,05,00,29,12.80
2011,07,05,00,30,12.80
2011,07,05,00,31,12.80
2011,07,05,00,32,12.80
2011,07,05,00,33,12.80
2011,07,05,00,34,12.80
2011,07,05,00,35,12.70
2011,07,05,00,36,12.70
2011,07,05,00,37,12.70
2011,07,05,00,38,12.70
2011,07,05,00,39,12.70
2011,07,05,00,40,12.70
2011,07,05,00,41,12.70
2011,07,05,00,42,12.70
2011,07,05,00,43,12.70
2011,07,05,00,44,12.70
2011,07,05,00,45,12.70
2011,07,05,00,46,12.70
2011,07,05,00,47,12.70
2011,07,05,00,48,12.70
2011,07,05,00,49,12.70
2011,07,05,00,50,12.70
2011,07,05,00,51,12.70
2011,07,05,00,52,12.70
2011,07,05,00,53,12.70
2011,07,05,00,54,12.70
2011,07,05,00,55,12.70
2011,07,05,00,56,12.60
2011,07,05,00,57,12.60
2011,07,05,00,58,12.60
2011,07,05,00,59,12.60
2011,07,05,01,00,12.60
2011,07,05,01,01,12.60
2011,07,05,01,02,12.60
2011,07,05,01,03,12.60
2011,07,05,01,04,12.50
2011,07,05,01,05,12.50
2011,07,05,01,06,12.50
2011,07,05,01,07,12.50
2011,07,05,01,08,12.50
2011,07,05,01,09,12.50
2011,07,05,01,10,12.50
2011,07,05,01,11,12.50
2011,07,05,01,12,12.50
2011,07,05,01,13,12.50
2011,07,05,01,14,12.50
2011,07,05,01,15,12.50
2011,07,05,01,16,12.40
2011,07,05,01,17,12.40
2011,07,05,01,18,12.40
2011,07,05,01,19,12.40
2011,07,05,01,20,12.40
2011,07,05,01,21,12.40
2011,07,05,01,22,12.30
2011,07,05,01,23,12.30
2011,07,05,01,24,12.30
2011,07,05,01,25,12.30
2011,07,05,01,26,12.30
2011,07,05,01,27,12.30
2011,07,05,01,28,12.30
2011,07,05,01,29,12.30
2011,07,05,01,30,12.30
2011,07,05,01,31,12.30
2011,07,05,01,32,12.30
2011,07,05,01,33,12.30
2011,07,05,01,34,12.30
2011,07,05,01,35,12.20
2011,07,05,01,36,12.20
2011,07,05,01,37,12.20
2011,07,05,01,38,12.20
2011,07,05,01,39,12.20
2011,07,05,01,40,12.10
2011,07,05,01,41,12.10
2011,07,05,01,42,12.10
2011,07,05,01,43,12.10
2011,07,05,01,44,12.10
2011,07,05,01,45,12.10
2011,07,05,01,46,12.10
2011,07,05,01,47,12.10
2011,07,05,01,48,12.10
2011,07,05,01,49,12.00
2011,07,05,01,50,12.00
2011,07,05,01,51,12.00
2011,07,05,01,52,12.00
2011,07,05,01,53,12.00
2011,07,05,01,54,12.00
2011,07,05,01,55,11.90
2011,07,05,01,56,11.90
2011,07,05,01,57,11.90
2011,07,05,01,58,11.90
2011,07,05,01,59,11.90
2011,07,05,02,00,11.90
2011,07,05,02,01,11.90
2011,07,05,02,02,11.90
2011,07,05,02,03,11.90
2011,07,05,02,04,11.90
2011,07,05,02,05,11.90
2011,07,05,02,06,11.90
2011,07,05,02,07,11.90
2011,07,05,02,08,11.80
2011,07,05,02,09,11.80
2011,07,05,02,10,11.80
2011,07,05,02,11,11.80
2011,07,05,02,12,11.80
2011,07,05,02,13,11.80
2011,07,05,02,14,11.80
2011,07,05,02,15,11.80
2011,07,05,02,16,11.80
2011,07,05,02,17,11.80
2011,07,05,02,18,11.80
2011,07,05,02,19,11.80
2011,07,05,02,20,11.70
2011,07,05,02,21,11.70
2011,07,05,02,22,11.70
2011,07,05,02,23,11.70
2011,07,05,02,24,11.70
2011,07,05,02,25,11.70
2011,07,05,02,26,11.60
2011,07,05,02,27,11.60
2011,07,05,02,28,11.60
2011,07,05,02,29,11.60
2011,07,05,02,30,11.60
2011,07,05,02,31,11.60
2011,07,05,02,32,11.60
2011,07,05,02,33,11.60
2011,07,05,02,34,11.60
2011,07,05,02,35,11.60
2011,07,05,02,36,11.60
2011,07,05,02,37,11.50
2011,07,05,02,38,11.40
2011,07,05,02,39,11.40
2011,07,05,02,40,11.40
2011,07,05,02,41,11.40
2011,07,05,02,42,11.40
2011,07,05,02,43,11.40
2011,07,05,02,44,11.40
2011,07,05,02,45,11.30
2011,07,05,02,46,11.30
2011,07,05,02,47,11.30
2011,07,05,02,48,11.30
2011,07,05,02,49,11.30
2011,07,05,02,50,11.20
2011,07,05,02,51,11.20
2011,07,05,02,52,11.20
2011,07,05,02,53,11.20
2011,07,05,02,54,11.20
2011,07,05,02,55,11.20
2011,07,05,02,56,11.20
2011,07,05,02,57,11.20
2011,07,05,02,58,11.20
2011,07,05,02,59,11.20
2011,07,05,03,00,11.20
2011,07,05,03,01,11.20
2011,07,05,03,02,11.20
2011,07,05,03,03,11.20
2011,07,05,03,04,11.20
2011,07,05,03,05,11.20
2011,07,05,03,06,11.20
2011,07,05,03,07,11.20
2011,07,05,03,08,11.20
2011,07,05,03,09,11.20
2011,07,05,03,10,11.20
2011,07,05,03,11,11.20
2011,07,05,03,12,11.20
2011,07,05,03,13,11.20
2011,07,05,03,14,11.20
2011,07,05,03,15,11.20
2011,07,05,03,16,11.30
2011,07,05,03,17,11.30
2011,07,05,03,18,11.30
2011,07,05,03,19,11.30
2011,07,05,03,20,11.30
2011,07,05,03,21,11.30
2011,07,05,03,22,11.30
2011,07,05,03,23,11.30
2011,07,05,03,24,11.30
2011,07,05,03,25,11.30
2011,07,05,03,26,11.30
2011,07,05,03,27,11.30
2011,07,05,03,28,11.30
2011,07,05,03,29,11.40
2011,07,05,03,30,11.40
2011,07,05,03,31,11.40
2011,07,05,03,32,11.40
2011,07,05,03,33,11.40
2011,07,05,03,34,11.40
2011,07,05,03,35,11.40
2011,07,05,03,36,11.40
2011,07,05,03,37,11.40
2011,07,05,03,38,11.40
2011,07,05,03,39,11.40
2011,07,05,03,40,11.40
2011,07,05,03,41,11.40
2011,07,05,03,42,11.40
2011,07,05,03,43,11.40
2011,07,05,03,44,11.40
2011,07,05,03,45,11.40
2011,07,05,03,46,11.40
2011,07,05,03,47,11.40
2011,07,05,03,48,11.40
2011,07,05,03,49,11.30
2011,07,05,03,50,11.30
2011,07,05,03,51,11.30
2011,07,05,03,52,11.30
2011,07,05,03,53,11.40
2011,07,05,03,54,11.40
2011,07,05,03,55,11.40
2011,07,05,03,56,11.30
2011,07,05,03,57,11.30
2011,07,05,03,58,11.30
2011,07,05,03,59,11.30
2011,07,05,04,00,11.30
2011,07,05,04,01,11.30
2011,07,05,04,02,11.30
2011,07,05,04,03,11.30
2011,07,05,04,04,11.30
2011,07,05,04,05,11.30
2011,07,05,04,06,11.30
2011,07,05,04,07,11.30
2011,07,05,04,08,11.30
2011,07,05,04,09,11.40
2011,07,05,04,10,11.40
2011,07,05,04,11,11.40
2011,07,05,04,12,11.40
2011,07,05,04,13,11.50
2011,07,05,04,14,11.60
2011,07,05,04,15,11.60
2011,07,05,04,16,11.60
2011,07,05,04,17,11.60
2011,07,05,04,18,11.60
2011,07,05,04,19,11.60
2011,07,05,04,20,11.60
2011,07,05,04,21,11.60
2011,07,05,04,22,11.60
2011,07,05,04,23,11.60
2011,07,05,04,24,11.60
2011,07,05,04,25,11.60
2011,07,05,04,26,11.60
2011,07,05,04,27,11.50
2011,07,05,04,28,11.40
2011,07,05,04,29,11.40
2011,07,05,04,30,11.40
2011,07,05,04,31,11.40
2011,07,05,04,32,11.40
2011,07,05,04,33,11.30
2011,07,05,04,34,11.30
2011,07,05,04,35,11.30
2011,07,05,04,36,11.20
2011,07,05,04,37,11.20
2011,07,05,04,38,11.20
2011,07,05,04,39,11.10
2011,07,05,04,40,11.10
2011,07,05,04,41,11.10
2011,07,05,04,42,11.10
2011,07,05,04,43,11.10
2011,07,05,04,44,11.10
2011,07,05,04,45,11.10
2011,07,05,04,46,11.10
2011,07,05,04,47,10.90
2011,07,05,04,48,10.90
2011,07,05,04,49,10.90
2011,07,05,04,50,10.90
2011,07,05,04,51,10.90
2011,07,05,04,52,10.90
2011,07,05,04,53,10.90
2011,07,05,04,54,10.90
2011,07,05,04,55,10.90
2011,07,05,04,56,10.90
2011,07,05,04,57,10.90
2011,07,05,04,58,10.80
2011,07,05,04,59,10.80
2011,07,05,05,00,10.80
2011,07,05,05,01,10.80
2011,07,05,05,02,10.80
2011,07,05,05,03,10.70
2011,07,05,05,04,10.70
2011,07,05,05,05,10.70
2011,07,05,05,06,10.70
2011,07,05,05,07,10.60
2011,07,05,05,08,10.60
2011,07,05,05,09,10.60
2011,07,05,05,10,10.60
2011,07,05,05,11,10.50
2011,07,05,05,12,10.40
2011,07,05,05,13,10.40
2011,07,05,05,14,10.40
2011,07,05,05,15,10.40
2011,07,05,05,16,10.30
2011,07,05,05,17,10.30
2011,07,05,05,18,10.30
2011,07,05,05,19,10.30
2011,07,05,05,20,10.20
2011,07,05,05,21,10.20
2011,07,05,05,22,10.20
2011,07,05,05,23,10.10
2011,07,05,05,24,10.10
2011,07,05,05,25,10.10
2011,07,05,05,26,10.10
2011,07,05,05,27,10.10
2011,07,05,05,28,10.10
2011,07,05,05,29,10.10
2011,07,05,05,30,10.10
2011,07,05,05,31,10.10
2011,07,05,05,32,10.10
2011,07,05,05,33,10.10
2011,07,05,05,34,10.10
2011,07,05,05,35,10.10
2011,07,05,05,36,10.10
2011,07,05,05,37,10.10
2011,07,05,05,38,10.10
2011,07,05,05,39,10.10
2011,07,05,05,40,10.10
2011,07,05,05,41,10.10
2011,07,05,05,42,10.10
2011,07,05,05,43,10.10
2011,07,05,05,44,10.10
2011,07,05,05,45,10.10
2011,07,05,05,46,10.10
2011,07,05,05,47,10.10
2011,07,05,05,48,10.20
2011,07,05,05,49,10.20
2011,07,05,05,50,10.30
2011,07,05,05,51,10.30
2011,07,05,05,52,10.40
2011,07,05,05,53,10.40
2011,07,05,05,54,10.50
2011,07,05,05,55,10.60
2011,07,05,05,56,10.60
2011,07,05,05,57,10.70
2011,07,05,05,58,10.70
2011,07,05,05,59,10.70
2011,07,05,06,00,10.80
2011,07,05,06,01,10.80
2011,07,05,06,02,10.80
2011,07,05,06,03,10.80
2011,07,05,06,04,10.80
2011,07,05,06,05,10.80
2011,07,05,06,06,10.80
2011,07,05,06,07,10.80
2011,07,05,06,08,10.90
2011,07,05,06,09,10.90
2011,07,05,06,10,10.90
2011,07,05,06,11,10.90
2011,07,05,06,12,10.90
2011,07,05,06,13,10.90
2011,07,05,06,14,10.90
2011,07,05,06,15,11.00
2011,07,05,06,16,11.10
2011,07,05,06,17,11.10
2011,07,05,06,18,11.10
2011,07,05,06,19,11.10
2011,07,05,06,20,11.10
2011,07,05,06,21,11.10
2011,07,05,06,22,11.10
2011,07,05,06,23,11.10
2011,07,05,06,24,11.10
2011,07,05,06,25,11.10
2011,07,05,06,26,11.20
2011,07,05,06,27,11.20
2011,07,05,06,28,11.20
2011,07,05,06,29,11.30
2011,07,05,06,30,11.30
2011,07,05,06,31,11.40
2011,07,05,06,32,11.40
2011,07,05,06,33,11.60
2011,07,05,06,34,11.60
2011,07,05,06,35,11.70
2011,07,05,06,36,11.80
2011,07,05,06,37,11.90
2011,07,05,06,38,12.00
2011,07,05,06,39,12.10
2011,07,05,06,40,12.20
2011,07,05,06,41,12.20
2011,07,05,06,42,12.30
2011,07,05,06,43,12.40
2011,07,05,06,44,12.40
2011,07,05,06,45,12.50
2011,07,05,06,46,12.50
2011,07,05,06,47,12.60
2011,07,05,06,48,12.70
2011,07,05,06,49,12.70
2011,07,05,06,50,12.80
2011,07,05,06,51,12.90
2011,07,05,06,52,12.90
2011,07,05,06,53,13.00
2011,07,05,06,54,13.10
2011,07,05,06,55,13.10
2011,07,05,06,56,13.20
2011,07,05,06,57,13.20
2011,07,05,06,58,13.30
2011,07,05,06,59,13.30
2011,07,05,07,00,13.40
2011,07,05,07,01,13.40
2011,07,05,07,02,13.50
2011,07,05,07,03,13.60
2011,07,05,07,04,13.60
2011,07,05,07,05,13.60
2011,07,05,07,06,13.70
2011,07,05,07,07,13.70
2011,07,05,07,08,13.70
2011,07,05,07,09,13.70
2011,07,05,07,10,13.80
2011,07,05,07,11,13.80
2011,07,05,07,12,13.90
2011,07,05,07,13,13.90
2011,07,05,07,14,14.00
2011,07,05,07,15,14.10
2011,07,05,07,16,14.20
2011,07,05,07,17,14.20
2011,07,05,07,18,14.40
2011,07,05,07,19,14.50
2011,07,05,07,20,14.50
2011,07,05,07,21,14.60
2011,07,05,07,22,14.70
2011,07,05,07,23,14.80
2011,07,05,07,24,14.80
2011,07,05,07,25,14.80
2011,07,05,07,26,14.90
2011,07,05,07,27,14.90
2011,07,05,07,28,14.90
2011,07,05,07,29,14.90
2011,07,05,07,30,14.90
2011,07,05,07,31,14.80
2011,07,05,07,32,14.80
2011,07,05,07,33,14.80
2011,07,05,07,34,14.70
2011,07,05,07,35,14.70
2011,07,05,07,36,14.70
2011,07,05,07,37,14.70
2011,07,05,07,38,14.70
2011,07,05,07,39,14.70
2011,07,05,07,40,14.70
2011,07,05,07,41,14.70
2011,07,05,07,42,14.70
2011,07,05,07,43,14.70
2011,07,05,07,44,14.80
2011,07,05,07,45,14.80
2011,07,05,07,46,14.80
2011,07,05,07,47,14.90
2011,07,05,07,48,14.90
2011,07,05,07,49,15.00
2011,07,05,07,50,15.00
2011,07,05,07,51,15.10
2011,07,05,07,52,15.10
2011,07,05,07,53,15.10
2011,07,05,07,54,15.10
2011,07,05,07,55,15.10
2011,07,05,07,56,15.10
2011,07,05,07,57,15.00
2011,07,05,07,58,15.00
2011,07,05,07,59,15.00
2011,07,05,08,00,15.00
2011,07,05,08,01,15.00
2011,07,05,08,02,15.00
2011,07,05,08,03,15.00
2011,07,05,08,04,15.10
2011,07,05,08,05,15.10
2011,07,05,08,06,15.10
2011,07,05,08,07,15.20
2011,07,05,08,08,15.20
2011,07,05,08,09,15.30
2011,07,05,08,10,15.30
2011,07,05,08,11,15.30
2011,07,05,08,12,15.30
2011,07,05,08,13,15.30
2011,07,05,08,14,15.40
2011,07,05,08,15,15.40
2011,07,05,08,16,15.40
2011,07,05,08,17,15.50
2011,07,05,08,18,15.50
2011,07,05,08,19,15.50
2011,07,05,08,20,15.40
2011,07,05,08,21,15.40
2011,07,05,08,22,15.30
2011,07,05,08,23,15.30
2011,07,05,08,24,15.30
2011,07,05,08,25,15.30
2011,07,05,08,26,15.30
2011,07,05,08,27,15.20
2011,07,05,08,28,15.20
2011,07,05,08,29,15.10
2011,07,05,08,30,15.10
2011,07,05,08,31,15.10
2011,07,05,08,32,15.10
2011,07,05,08,33,15.00
2011,07,05,08,34,15.00
2011,07,05,08,35,15.00
2011,07,05,08,36,15.00
2011,07,05,08,37,15.00
2011,07,05,08,38,15.10
2011,07,05,08,39,15.10
2011,07,05,08,40,15.20
2011,07,05,08,41,15.20
2011,07,05,08,42,15.30
2011,07,05,08,43,15.30
2011,07,05,08,44,15.30
2011,07,05,08,45,15.30
2011,07,05,08,46,15.30
2011,07,05,08,47,15.30
2011,07,05,08,48,15.30
2011,07,05,08,49,15.30
2011,07,05,08,50,15.30
2011,07,05,08,51,15.20
2011,07,05,08,52,15.20
2011,07,05,08,53,15.30
2011,07,05,08,54,15.30
2011,07,05,08,55,15.30
2011,07,05,08,56,15.30
2011,07,05,08,57,15.30
2011,07,05,08,58,15.40
2011,07,05,08,59,15.40
2011,07,05,09,00,15.40
2011,07,05,09,01,15.40
2011,07,05,09,02,15.30
2011,07,05,09,03,15.30
2011,07,05,09,04,15.30
2011,07,05,09,05,15.30
2011,07,05,09,06,15.40
2011,07,05,09,07,15.40
2011,07,05,09,08,15.40
2011,07,05,09,09,15.50
2011,07,05,09,10,15.50
2011,07,05,09,11,15.60
2011,07,05,09,12,15.70
2011,07,05,09,13,15.80
2011,07,05,09,14,15.80
2011,07,05,09,15,15.90
2011,07,05,09,16,16.10
2011,07,05,09,17,16.10
2011,07,05,09,18,16.10
2011,07,05,09,19,16.10
2011,07,05,09,20,16.20
2011,07,05,09,21,16.20
2011,07,05,09,22,16.30
2011,07,05,09,23,16.30
2011,07,05,09,24,16.40
2011,07,05,09,25,16.50
2011,07,05,09,26,16.60
2011,07,05,09,27,16.70
2011,07,05,09,28,16.70
2011,07,05,09,29,16.70
2011,07,05,09,30,16.80
2011,07,05,09,31,16.80
2011,07,05,09,32,16.80
2011,07,05,09,33,16.90
2011,07,05,09,34,16.90
2011,07,05,09,35,16.90
2011,07,05,09,36,16.90
2011,07,05,09,37,16.80
2011,07,05,09,38,16.80
2011,07,05,09,39,16.70
2011,07,05,09,40,16.70
2011,07,05,09,41,16.80
2011,07,05,09,42,16.80
2011,07,05,09,43,16.90
2011,07,05,09,44,16.90
2011,07,05,09,45,17.00
2011,07,05,09,46,17.00
2011,07,05,09,47,17.00
2011,07,05,09,48,17.10
2011,07,05,09,49,17.10
2011,07,05,09,50,17.10
2011,07,05,09,51,17.20
2011,07,05,09,52,17.10
2011,07,05,09,53,17.10
2011,07,05,09,54,17.10
2011,07,05,09,55,17.20
2011,07,05,09,56,17.10
2011,07,05,09,57,17.10
2011,07,05,09,58,17.10
2011,07,05,09,59,17.10
2011,07,05,10,00,17.20
2011,07,05,10,01,17.10
2011,07,05,10,02,17.00
2011,07,05,10,03,16.90
2011,07,05,10,04,16.90
2011,07,05,10,05,16.70
2011,07,05,10,06,16.70
2011,07,05,10,07,16.60
2011,07,05,10,08,16.60
2011,07,05,10,09,16.50
2011,07,05,10,10,16.40
2011,07,05,10,11,16.40
2011,07,05,10,12,16.40
2011,07,05,10,13,16.40
2011,07,05,10,14,16.40
2011,07,05,10,15,16.40
2011,07,05,10,16,16.40
2011,07,05,10,17,16.40
2011,07,05,10,18,16.40
2011,07,05,10,19,16.50
2011,07,05,10,20,16.60
2011,07,05,10,21,16.70
2011,07,05,10,22,16.70
2011,07,05,10,23,16.80
2011,07,05,10,24,16.90
2011,07,05,10,25,17.00
2011,07,05,10,26,17.00
2011,07,05,10,27,17.10
2011,07,05,10,28,17.10
2011,07,05,10,29,17.10
2011,07,05,10,30,17.10
2011,07,05,10,31,17.10
2011,07,05,10,32,17.10
2011,07,05,10,33,17.10
2011,07,05,10,34,17.10
2011,07,05,10,35,17.10
2011,07,05,10,36,17.10
2011,07,05,10,37,17.10
2011,07,05,10,38,17.10
2011,07,05,10,39,17.20
2011,07,05,10,40,17.30
2011,07,05,10,41,17.30
2011,07,05,10,42,17.30
2011,07,05,10,43,17.40
2011,07,05,10,44,17.50
2011,07,05,10,45,17.50
2011,07,05,10,46,17.50
2011,07,05,10,47,17.60
2011,07,05,10,48,17.60
2011,07,05,10,49,17.60
2011,07,05,10,50,17.50
2011,07,05,10,51,17.40
2011,07,05,10,52,17.30
2011,07,05,10,53,17.30
2011,07,05,10,54,17.30
2011,07,05,10,55,17.30
2011,07,05,10,56,17.30
2011,07,05,10,57,17.40
2011,07,05,10,58,17.50
2011,07,05,10,59,17.60
2011,07,05,11,00,17.70
2011,07,05,11,01,17.70
2011,07,05,11,02,17.80
2011,07,05,11,03,17.90
2011,07,05,11,04,18.10
2011,07,05,11,05,18.20
2011,07,05,11,06,18.30
2011,07,05,11,07,18.30
2011,07,05,11,08,18.20
2011,07,05,11,09,18.20
2011,07,05,11,10,18.30
2011,07,05,11,11,18.30
2011,07,05,11,12,18.30
2011,07,05,11,13,18.40
2011,07,05,11,14,18.50
2011,07,05,11,15,18.50
2011,07,05,11,16,18.60
2011,07,05,11,17,18.60
2011,07,05,11,18,18.60
2011,07,05,11,19,18.70
2011,07,05,11,20,18.80
2011,07,05,11,21,18.90
2011,07,05,11,22,18.90
2011,07,05,11,23,19.00
2011,07,05,11,24,19.00
2011,07,05,11,25,18.90
2011,07,05,11,26,18.90
2011,07,05,11,27,18.90
2011,07,05,11,28,18.90
2011,07,05,11,29,18.90
2011,07,05,11,30,18.90
2011,07,05,11,31,18.90
2011,07,05,11,32,18.80
2011,07,05,11,33,18.80
2011,07,05,11,34,18.80
2011,07,05,11,35,18.90
2011,07,05,11,36,18.90
2011,07,05,11,37,18.90
2011,07,05,11,38,18.90
2011,07,05,11,39,18.90
2011,07,05,11,40,18.90
2011,07,05,11,41,18.90
2011,07,05,11,42,18.90
2011,07,05,11,43,18.90
2011,07,05,11,44,18.90
2011,07,05,11,45,18.90
2011,07,05,11,46,19.00
2011,07,05,11,47,19.10
2011,07,05,11,48,19.10
2011,07,05,11,49,19.20
2011,07,05,11,50,19.30
2011,07,05,11,51,19.40
2011,07,05,11,52,19.50
2011,07,05,11,53,19.50
2011,07,05,11,54,19.40
2011,07,05,11,55,19.50
2011,07,05,11,56,19.50
2011,07,05,11,57,19.50
2011,07,05,11,58,19.50
2011,07,05,11,59,19.40
2011,07,05,12,00,19.40
2011,07,05,12,01,19.50
2011,07,05,12,02,19.50
2011,07,05,12,03,19.60
2011,07,05,12,04,19.70
2011,07,05,12,05,19.70
2011,07,05,12,06,19.80
2011,07,05,12,07,19.80
2011,07,05,12,08,19.90
2011,07,05,12,09,19.90
2011,07,05,12,10,20.00
2011,07,05,12,11,20.10
2011,07,05,12,12,20.10
2011,07,05,12,13,20.00
2011,07,05,12,14,20.10
2011,07,05,12,15,20.10
2011,07,05,12,16,20.10
2011,07,05,12,17,20.20
2011,07,05,12,18,20.20
2011,07,05,12,19,20.20
2011,07,05,12,20,20.20
2011,07,05,12,21,20.10
2011,07,05,12,22,20.10
2011,07,05,12,23,19.90
2011,07,05,12,24,19.90
2011,07,05,12,25,19.90
2011,07,05,12,26,19.90
2011,07,05,12,27,19.90
2011,07,05,12,28,19.90
2011,07,05,12,29,19.90
2011,07,05,12,30,19.90
2011,07,05,12,31,19.90
2011,07,05,12,32,19.90
2011,07,05,12,33,19.90
2011,07,05,12,34,20.10
2011,07,05,12,35,20.20
2011,07,05,12,36,20.30
2011,07,05,12,37,20.40
2011,07,05,12,38,20.40
2011,07,05,12,39,20.50
2011,07,05,12,40,20.50
2011,07,05,12,41,20.50
2011,07,05,12,42,20.60
2011,07,05,12,43,20.60
2011,07,05,12,44,20.50
2011,07,05,12,45,20.40
2011,07,05,12,46,20.40
2011,07,05,12,47,20.40
2011,07,05,12,48,20.40
2011,07,05,12,49,20.40
2011,07,05,12,50,20.40
2011,07,05,12,51,20.50
2011,07,05,12,52,20.50
2011,07,05,12,53,20.70
2011,07,05,12,54,20.80
2011,07,05,12,55,21.00
2011,07,05,12,56,21.10
2011,07,05,12,57,21.20
2011,07,05,12,58,21.30
2011,07,05,12,59,21.40
2011,07,05,13,00,21.50
2011,07,05,13,01,21.50
2011,07,05,13,02,21.40
2011,07,05,13,03,21.40
2011,07,05,13,04,21.30
2011,07,05,13,05,21.20
2011,07,05,13,06,21.00
2011,07,05,13,07,20.90
2011,07,05,13,08,20.80
2011,07,05,13,09,20.60
2011,07,05,13,10,20.50
2011,07,05,13,11,20.40
2011,07,05,13,12,20.40
2011,07,05,13,13,20.40
2011,07,05,13,14,20.40
2011,07,05,13,15,20.50
2011,07,05,13,16,20.60
2011,07,05,13,17,20.80
2011,07,05,13,18,20.70
2011,07,05,13,19,20.60
2011,07,05,13,20,20.50
2011,07,05,13,21,20.50
2011,07,05,13,22,20.50
2011,07,05,13,23,20.60
2011,07,05,13,24,20.70
2011,07,05,13,25,20.60
2011,07,05,13,26,20.70
2011,07,05,13,27,20.70
2011,07,05,13,28,20.70
2011,07,05,13,29,20.70
2011,07,05,13,30,20.80
2011,07,05,13,31,21.00
2011,07,05,13,32,21.00
2011,07,05,13,33,21.00
2011,07,05,13,34,21.00
2011,07,05,13,35,21.00
2011,07,05,13,36,21.00
2011,07,05,13,37,21.00
2011,07,05,13,38,21.10
2011,07,05,13,39,21.20
2011,07,05,13,40,21.30
2011,07,05,13,41,21.40
2011,07,05,13,42,21.50
2011,07,05,13,43,21.40
2011,07,05,13,44,21.30
2011,07,05,13,45,21.30
2011,07,05,13,46,21.30
2011,07,05,13,47,21.30
2011,07,05,13,48,21.30
2011,07,05,13,49,21.40
2011,07,05,13,50,21.60
2011,07,05,13,51,21.70
2011,07,05,13,52,21.80
2011,07,05,13,53,21.90
2011,07,05,13,54,22.00
2011,07,05,13,55,22.10
2011,07,05,13,56,22.10
2011,07,05,13,57,22.10
2011,07,05,13,58,22.10
2011,07,05,13,59,22.20
2011,07,05,14,00,22.20
2011,07,05,14,01,22.20
2011,07,05,14,02,22.20
2011,07,05,14,03,22.30
2011,07,05,14,04,22.30
2011,07,05,14,05,22.30
2011,07,05,14,06,22.40
2011,07,05,14,07,22.50
2011,07,05,14,08,22.50
2011,07,05,14,09,22.50
2011,07,05,14,10,22.60
2011,07,05,14,11,22.60
2011,07,05,14,12,22.60
2011,07,05,14,13,22.70
2011,07,05,14,14,22.70
2011,07,05,14,15,22.70
2011,07,05,14,16,22.60
2011,07,05,14,17,22.60
2011,07,05,14,18,22.60
2011,07,05,14,19,22.60
2011,07,05,14,20,22.60
2011,07,05,14,21,22.70
2011,07,05,14,22,22.90
2011,07,05,14,23,23.10
2011,07,05,14,24,23.30
2011,07,05,14,25,23.40
2011,07,05,14,26,23.40
2011,07,05,14,27,23.40
2011,07,05,14,28,23.30
2011,07,05,14,29,23.30
2011,07,05,14,30,23.30
2011,07,05,14,31,23.30
2011,07,05,14,32,23.30
2011,07,05,14,33,23.30
2011,07,05,14,34,23.30
2011,07,05,14,35,23.30
2011,07,05,14,36,23.50
2011,07,05,14,37,23.60
2011,07,05,14,38,23.70
2011,07,05,14,39,23.70
2011,07,05,14,40,23.70
2011,07,05,14,41,23.60
2011,07,05,14,42,23.50
2011,07,05,14,43,23.40
2011,07,05,14,44,23.40
2011,07,05,14,45,23.40
2011,07,05,14,46,23.50
2011,07,05,14,47,23.60
2011,07,05,14,48,23.60
2011,07,05,14,49,23.60
2011,07,05,14,50,23.50
2011,07,05,14,51,23.40
2011,07,05,14,52,23.30
2011,07,05,14,53,23.30
2011,07,05,14,54,23.30
2011,07,05,14,55,23.30
2011,07,05,14,56,23.30
2011,07,05,14,57,23.30
2011,07,05,14,58,23.60
2011,07,05,14,59,23.70
2011,07,05,15,00,23.70
2011,07,05,15,01,23.80
2011,07,05,15,02,23.80
2011,07,05,15,03,23.90
2011,07,05,15,04,23.90
2011,07,05,15,05,23.90
2011,07,05,15,06,23.70
2011,07,05,15,07,23.70
2011,07,05,15,08,23.60
2011,07,05,15,09,23.40
2011,07,05,15,10,23.40
2011,07,05,15,11,23.30
2011,07,05,15,12,23.30
2011,07,05,15,13,23.40
2011,07,05,15,14,23.50
2011,07,05,15,15,23.60
2011,07,05,15,16,23.50
2011,07,05,15,17,23.60
2011,07,05,15,18,23.60
2011,07,05,15,19,23.60
2011,07,05,15,20,23.60
2011,07,05,15,21,23.60
2011,07,05,15,22,23.50
2011,07,05,15,23,23.40
2011,07,05,15,24,23.50
2011,07,05,15,25,23.40
2011,07,05,15,26,23.40
2011,07,05,15,27,23.40
2011,07,05,15,28,23.30
2011,07,05,15,29,23.40
2011,07,05,15,30,23.40
2011,07,05,15,31,23.40
2011,07,05,15,32,23.40
2011,07,05,15,33,23.40
2011,07,05,15,34,23.40
2011,07,05,15,35,23.40
2011,07,05,15,36,23.50
2011,07,05,15,37,23.60
2011,07,05,15,38,23.70
2011,07,05,15,39,23.70
2011,07,05,15,40,23.70
2011,07,05,15,41,23.70
2011,07,05,15,42,23.70
2011,07,05,15,43,23.70
2011,07,05,15,44,23.70
2011,07,05,15,45,23.70
2011,07,05,15,46,23.70
2011,07,05,15,47,23.70
2011,07,05,15,48,23.80
2011,07,05,15,49,23.90
2011,07,05,15,50,23.90
2011,07,05,15,51,23.90
2011,07,05,15,52,23.90
2011,07,05,15,53,23.90
2011,07,05,15,54,23.90
2011,07,05,15,55,24.00
2011,07,05,15,56,24.10
2011,07,05,15,57,24.10
2011,07,05,15,58,24.10
2011,07,05,15,59,24.10
2011,07,05,16,00,24.10
2011,07,05,16,01,24.10
2011,07,05,16,02,24.10
2011,07,05,16,03,24.10
2011,07,05,16,04,24.10
2011,07,05,16,05,24.10
2011,07,05,16,06,24.10
2011,07,05,16,07,24.20
2011,07,05,16,08,24.10
2011,07,05,16,09,24.10
2011,07,05,16,10,24.10
2011,07,05,16,11,24.10
2011,07,05,16,12,24.10
2011,07,05,16,13,24.10
2011,07,05,16,14,24.00
2011,07,05,16,15,23.90
2011,07,05,16,16,23.80
2011,07,05,16,17,23.80
2011,07,05,16,18,23.70
2011,07,05,16,19,23.70
2011,07,05,16,20,23.70
2011,07,05,16,21,23.70
2011,07,05,16,22,23.80
2011,07,05,16,23,23.90
2011,07,05,16,24,23.90
2011,07,05,16,25,23.90
2011,07,05,16,26,23.90
2011,07,05,16,27,23.90
2011,07,05,16,28,23.70
2011,07,05,16,29,23.70
2011,07,05,16,30,23.70
2011,07,05,16,31,23.70
2011,07,05,16,32,23.70
2011,07,05,16,33,23.80
2011,07,05,16,34,23.90
2011,07,05,16,35,24.00
2011,07,05,16,36,24.10
2011,07,05,16,37,24.00
2011,07,05,16,38,23.90
2011,07,05,16,39,23.80
2011,07,05,16,40,23.80
2011,07,05,16,41,23.80
2011,07,05,16,42,23.70
2011,07,05,16,43,23.70
2011,07,05,16,44,23.70
2011,07,05,16,45,23.70
2011,07,05,16,46,23.70
2011,07,05,16,47,23.60
2011,07,05,16,48,23.60
2011,07,05,16,49,23.50
2011,07,05,16,50,23.40
2011,07,05,16,51,23.40
2011,07,05,16,52,23.30
2011,07,05,16,53,23.30
2011,07,05,16,54,23.40
2011,07,05,16,55,23.40
2011,07,05,16,56,23.40
2011,07,05,16,57,23.30
2011,07,05,16,58,23.40
2011,07,05,16,59,23.50
2011,07,05,17,00,23.60
2011,07,05,17,01,23.70
2011,07,05,17,02,23.70
2011,07,05,17,03,23.70
2011,07,05,17,04,23.70
2011,07,05,17,05,23.70
2011,07,05,17,06,23.70
2011,07,05,17,07,23.70
2011,07,05,17,08,23.70
2011,07,05,17,09,23.70
2011,07,05,17,10,23.60
2011,07,05,17,11,23.60
2011,07,05,17,12,23.70
2011,07,05,17,13,23.70
2011,07,05,17,14,23.70
2011,07,05,17,15,23.70
2011,07,05,17,16,23.70
2011,07,05,17,17,23.80
2011,07,05,17,18,23.80
2011,07,05,17,19,23.80